Flag for U.S.A. Weather past 2 weeks in South Bend, Indiana, U.S.A.

Now
46 °F

Clear.


Feels Like: 40 °F
Forecast: 38 / 52 °F
Wind: 13 mph from Northwest

Location: Michiana Regional Airport

Current Time: Mar 31, 2015 at 8:14:21 AM

Latest Report: Mar 31, 2015 at 6:54 AM


Visibility: 10 mi

Pressure: 29.71 "Hg

Humidity: 63%

Dew point: 34 °F

Location of South BendLocation

Historic Weather in South Bend — Graph

°F

South Bend temperature yesterday

Maximum temperature yesterday: 59 °F (at 4:54 PM)
Minimum temperature yesterday: 33 °F (at 5:54 AM)
Average temperature yesterday: 47 °F

Past Weeks' High & Low Weather Summary

 TemperatureHumidityPressure
High71 °F (Mar 16, 3:54 PM)100% (Mar 25, 11:54 AM)30.37 "Hg (Mar 25, 11:54 AM)
Low12 °F (Mar 28, 6:54 AM)23% (Mar 18, 2:54 PM)29.70 "Hg (Mar 31, 4:54 AM)
Average37 °F60%30.14 "Hg
* Reported Mar 16 6:54 AM — Mar 31 6:54 AM, South Bend, Weather by CustomWeather, © 2015

Note: Actual official high and low records may vary slightly from our data, if they occured in-between our weather recording intervals... More about our weather records

Advertising

South Bend weather history for previous 24 hours

 ConditionsComfort  
Time TempWeatherWind HumidityBarometerVisibility
6:54 AM
Tue, Mar 31
46 °FClear.13 mph63%29.71 "Hg10 mi
5:54 AM43 °FPassing clouds.9 mph71%29.70 "Hg10 mi
4:54 AM49 °FPassing clouds.9 mph59%29.70 "Hg10 mi
3:54 AM50 °FLight rain. Overcast.14 mph57%29.70 "Hg10 mi
2:54 AM51 °FPassing clouds.17 mph52%29.73 "Hg10 mi
1:54 AM47 °FMostly cloudy.8 mph71%29.78 "Hg10 mi
12:54 AM45 °FPassing clouds.9 mph80%29.85 "Hg10 mi
11:54 PM
Mon, Mar 30
46 °FOvercast.9 mph79%29.88 "Hg10 mi
10:54 PM46 °FPassing clouds.7 mph79%29.93 "Hg10 mi
9:54 PM47 °FPartly cloudy.No wind80%29.97 "Hg10 mi
8:54 PM49 °FLight rain. Overcast.8 mph71%30.01 "Hg10 mi
7:54 PM53 °FLight rain. Mostly cloudy.7 mph48%29.98 "Hg10 mi
6:54 PM57 °FMostly cloudy.15 mph33%29.96 "Hg10 mi
5:54 PM58 °FPartly sunny.14 mph30%29.98 "Hg10 mi
4:54 PM59 °FScattered clouds.20 mph27%30.00 "Hg10 mi
3:54 PM57 °FSunny.14 mph27%30.01 "Hg10 mi
2:54 PM57 °FSunny.18 mph23%30.03 "Hg10 mi
1:54 PM57 °FSunny.18 mph26%30.04 "Hg10 mi
12:54 PM55 °FSunny.21 mph30%30.05 "Hg10 mi
11:54 AM53 °FSunny.22 mph32%30.06 "Hg10 mi
10:54 AM50 °FSunny.21 mph38%30.06 "Hg10 mi
9:54 AM45 °FSunny.15 mph58%30.04 "Hg10 mi
8:54 AM39 °FSunny.7 mph76%30.03 "Hg10 mi
Weather by CustomWeather, © 2015

See weather overviewHow to use our weather pages